📊 Raw Sensor Data
Showing records 38501 to 38525 of 84,931 total
| ID | Distance (ft) | Battery V | Battery A | Int Temp (°F) | Int Humid (%) | Ext Temp (°F) | Solar V | RSSI | SNR | Time Stamp |
|---|---|---|---|---|---|---|---|---|---|---|
| 46443 | 15.2 | 4.00 | 18 | 61 | 43 | 65 | 4.50 | -72 | 8 | 07/16/2025 07:30 AM |
| 46442 | 15.2 | 4.01 | 10 | 60 | 42 | 64 | 4.50 | -72 | 8 | 07/16/2025 07:15 AM |
| 46441 | 15.2 | 3.99 | 5 | 59 | 42 | 62 | 4.50 | -71 | 8 | 07/16/2025 07:00 AM |
| 46440 | 15.1 | 3.98 | 0 | 57 | 42 | 61 | 4.50 | -72 | 7 | 07/16/2025 06:45 AM |
| 46439 | 15.1 | 3.93 | 0 | 56 | 42 | 59 | 4.50 | -72 | 8 | 07/16/2025 06:30 AM |
| 46438 | 15.0 | 3.97 | -5 | 55 | 43 | 57 | 4.50 | -73 | 8 | 07/16/2025 06:15 AM |
| 46437 | 15.1 | 3.91 | -39 | 54 | 43 | 56 | 4.30 | -73 | 8 | 07/16/2025 06:00 AM |
| 46436 | 15.0 | 3.92 | -5 | 54 | 43 | 55 | 1.70 | -72 | 8 | 07/16/2025 05:45 AM |
| 46435 | 15.1 | 3.93 | -5 | 54 | 43 | 55 | 0.00 | -73 | 8 | 07/16/2025 05:30 AM |
| 46434 | 15.1 | 3.98 | -5 | 54 | 43 | 55 | 0.00 | -74 | 8 | 07/16/2025 05:15 AM |
| 46433 | 15.1 | 3.93 | -5 | 54 | 43 | 56 | 0.00 | -72 | 8 | 07/16/2025 05:00 AM |
| 46432 | 15.1 | 3.93 | -5 | 54 | 43 | 56 | 0.00 | -72 | 8 | 07/16/2025 04:45 AM |
| 46431 | 15.1 | 3.93 | -5 | 55 | 43 | 56 | 0.00 | -73 | 8 | 07/16/2025 04:30 AM |
| 46430 | 15.1 | 3.98 | -5 | 55 | 43 | 56 | 0.00 | -73 | 8 | 07/16/2025 04:15 AM |
| 46429 | 15.1 | 3.93 | -5 | 55 | 43 | 56 | 0.10 | -71 | 8 | 07/16/2025 04:00 AM |
| 46428 | 15.1 | 3.92 | -5 | 55 | 43 | 56 | 0.00 | -72 | 8 | 07/16/2025 03:45 AM |
| 46427 | 15.1 | 3.91 | -5 | 55 | 44 | 56 | 0.00 | -73 | 8 | 07/16/2025 03:30 AM |
| 46426 | 15.1 | 3.91 | -5 | 55 | 44 | 56 | 0.00 | -72 | 8 | 07/16/2025 03:15 AM |
| 46425 | 15.1 | 3.98 | -5 | 55 | 44 | 56 | 0.00 | -71 | 7 | 07/16/2025 03:00 AM |
| 46424 | 15.2 | 3.91 | -5 | 55 | 44 | 56 | 0.00 | -73 | 8 | 07/16/2025 02:45 AM |
| 46423 | 15.2 | 3.98 | -5 | 55 | 44 | 56 | 0.00 | -72 | 8 | 07/16/2025 02:30 AM |
| 46422 | 15.2 | 3.98 | -5 | 56 | 44 | 56 | 0.00 | -72 | 8 | 07/16/2025 02:15 AM |
| 46421 | 15.2 | 3.93 | -35 | 56 | 44 | 57 | 0.00 | -72 | 8 | 07/16/2025 02:00 AM |
| 46420 | 15.2 | 3.93 | -5 | 56 | 44 | 57 | 0.10 | -75 | 7 | 07/16/2025 01:45 AM |
| 46419 | 15.2 | 3.93 | -5 | 56 | 44 | 58 | 0.10 | -73 | 7 | 07/16/2025 01:30 AM |